Location: Recife
(8.0585°S, 34.8848°W)
Time: 12:55:53
(UTC-03:00)

Vanguard 2 - Pass Details

Date: 16 April 2026
Orbit: 553 x 2895 km, 32.9° (Epoch: 13 May)

Event Time Altitude Azimuth Distance (km) Brightness Sun altitude
Exits shadow 02:05:16 27° 175° (S) 3,979 11.0 -49.0°
Drops below altitude 10° 02:15:32 10° 123° (ESE) 4,450 11.8 -46.5°
Sets 02:19:25 0° 110° (ESE) 5,091 12.3 -45.6°
